ホームズ彗星

C/2008 N1 ( Holmes )

English version
Home page
Updated on October 3, 2010

---------------------------------------------------------------------

・ プロフィール

発見日 2008年7月1日
発見光度 20.2等
発見者 Robert E. Holmes, Jr. (Charleston, IL, U.S.A.)

・ 写真集

・ 軌道要素

The following orbital elements are taken from MPC 68902:

Epoch 2009 Sept. 6.0 TT = JDT 2455080.5
T 2009 Sept. 25.8881 TT                                 MPC
q   2.783509             (2000.0)            P               Q
z  +0.001003       Peri.  100.8165      -0.2061436      -0.9777122
                   Node   357.4726      -0.7328836      +0.1812148
e   0.997209       Incl.  115.5210      +0.6483721      -0.1060191
From 1140 observations 2008 July 1-2010 Feb. 23.

・ 星図

・ 光度変化

        m1 = 10.7 + 5 logΔ + 7.0 log r

---------------------------------------------------------------------

軌道要素はMPCのEphemerides and Orbital Elementsに掲載されたものです。
星図はステラナビゲータ Ver.8 (アストロアーツ) で作成したものです。
光度グラフはComet for Windowsで作成したものです。

---------------------------------------------------------------------

Copyright(C) Seiichi Yoshida (comet@aerith.net). All rights reserved.